Location: Gorze? G�rny
(49.8500°N, 19.5000°E)
Time: 05:28:46
(UTC+00:00)

Cosmos 1943 Rocket - Pass Details

Date: 13 May 2021
Orbit: 814 x 842 km, 71.0° (Epoch: 20 June)

Event Time Altitude Azimuth Distance (km) Brightness Sun altitude
Exits shadow 23:16:16 - 259° (W) 3,192 5.0 -21.0°
Reaches altitude 10° 23:18:46 10° 274° (W) 2,446 4.5 -20.9°
Maximum altitude 23:22:55 21° 321° (NW) 1,806 4.4 -20.8°
Drops below altitude 10° 23:27:03 10° 10° (N) 2,440 5.8 -20.7°
Sets 23:30:08 0° 26° (NNE) 3,370 6.8 -20.6°
